Year,Month,Day,Hour,Minute,Value (Times are PST for temperature in C)
2007,07,12,00,00,23.10
2007,07,12,00,01,23.10
2007,07,12,00,02,23.10
2007,07,12,00,03,23.10
2007,07,12,00,04,23.00
2007,07,12,00,05,22.90
2007,07,12,00,06,22.90
2007,07,12,00,07,22.90
2007,07,12,00,08,22.90
2007,07,12,00,09,22.90
2007,07,12,00,10,22.90
2007,07,12,00,11,22.90
2007,07,12,00,12,22.90
2007,07,12,01,02,22.30
2007,07,12,01,03,22.30
2007,07,12,01,04,22.30
2007,07,12,01,05,22.30
2007,07,12,01,06,22.20
2007,07,12,01,07,22.20
2007,07,12,01,08,22.20
2007,07,12,01,09,22.20
2007,07,12,01,10,22.20
2007,07,12,01,11,22.20
2007,07,12,01,12,22.20
2007,07,12,01,13,22.10
2007,07,12,01,14,22.10
2007,07,12,01,15,22.10
2007,07,12,01,16,22.10
2007,07,12,01,17,22.00
2007,07,12,01,18,22.00
2007,07,12,01,19,21.90
2007,07,12,01,20,21.90
2007,07,12,01,21,21.90
2007,07,12,01,22,21.90
2007,07,12,01,23,21.90
2007,07,12,01,24,21.90
2007,07,12,01,25,21.80
2007,07,12,01,26,21.80
2007,07,12,01,27,21.80
2007,07,12,01,28,21.70
2007,07,12,01,29,21.70
2007,07,12,01,30,21.70
2007,07,12,01,31,21.70
2007,07,12,01,32,21.70
2007,07,12,01,33,21.70
2007,07,12,01,34,21.60
2007,07,12,01,35,21.60
2007,07,12,01,36,21.60
2007,07,12,01,37,21.60
2007,07,12,01,38,21.60
2007,07,12,01,39,21.60
2007,07,12,01,40,21.60
2007,07,12,01,41,21.60
2007,07,12,01,42,21.60
2007,07,12,01,43,21.60
2007,07,12,01,44,21.50
2007,07,12,01,45,21.40
2007,07,12,01,46,21.40
2007,07,12,01,47,21.40
2007,07,12,01,48,21.40
2007,07,12,01,49,21.40
2007,07,12,01,50,21.40
2007,07,12,01,51,21.30
2007,07,12,01,52,21.30
2007,07,12,01,53,21.30
2007,07,12,01,54,21.30
2007,07,12,01,55,21.30
2007,07,12,01,56,21.30
2007,07,12,01,57,21.30
2007,07,12,01,58,21.30
2007,07,12,01,59,21.30
2007,07,12,02,00,21.30
2007,07,12,02,01,21.30
2007,07,12,02,02,21.20
2007,07,12,02,03,21.20
2007,07,12,02,04,21.10
2007,07,12,02,05,21.10
2007,07,12,02,06,21.10
2007,07,12,02,07,21.10
2007,07,12,02,08,21.00
2007,07,12,02,09,21.00
2007,07,12,02,10,21.00
2007,07,12,02,11,21.00
2007,07,12,02,12,21.00
2007,07,12,02,13,21.00
2007,07,12,02,14,21.00
2007,07,12,02,15,20.90
2007,07,12,02,16,20.90
2007,07,12,02,17,20.90
2007,07,12,02,18,20.90
2007,07,12,02,19,20.90
2007,07,12,02,20,20.90
2007,07,12,02,21,20.90
2007,07,12,02,22,20.90
2007,07,12,02,23,20.90
2007,07,12,02,24,20.80
2007,07,12,02,25,20.80
2007,07,12,02,26,20.80
2007,07,12,02,27,20.80
2007,07,12,02,28,20.70
2007,07,12,02,29,20.70
2007,07,12,02,30,20.70
2007,07,12,02,31,20.70
2007,07,12,02,32,20.70
2007,07,12,02,33,20.60
2007,07,12,02,34,20.60
2007,07,12,02,35,20.60
2007,07,12,02,36,20.60
2007,07,12,02,37,20.50
2007,07,12,02,38,20.50
2007,07,12,02,39,20.50
2007,07,12,02,40,20.50
2007,07,12,02,41,20.40
2007,07,12,02,42,20.40
2007,07,12,02,43,20.40
2007,07,12,02,44,20.30
2007,07,12,02,45,20.30
2007,07,12,02,46,20.20
2007,07,12,02,47,20.20
2007,07,12,02,48,20.10
2007,07,12,02,49,20.10
2007,07,12,02,50,20.00
2007,07,12,02,51,19.90
2007,07,12,02,52,19.90
2007,07,12,02,53,19.90
2007,07,12,02,54,19.80
2007,07,12,02,55,19.80
2007,07,12,02,56,19.70
2007,07,12,02,57,19.60
2007,07,12,02,58,19.60
2007,07,12,02,59,19.50
2007,07,12,03,00,19.40
2007,07,12,03,01,19.30
2007,07,12,03,02,19.30
2007,07,12,03,03,19.20
2007,07,12,03,04,19.10
2007,07,12,03,05,19.10
2007,07,12,03,06,19.10
2007,07,12,03,07,19.10
2007,07,12,03,08,19.10
2007,07,12,03,09,18.90
2007,07,12,03,10,18.90
2007,07,12,03,11,18.90
2007,07,12,03,12,18.80
2007,07,12,03,13,18.70
2007,07,12,03,14,18.70
2007,07,12,03,15,18.60
2007,07,12,03,16,18.60
2007,07,12,03,17,18.50
2007,07,12,03,18,18.50
2007,07,12,03,19,18.40
2007,07,12,03,20,18.40
2007,07,12,03,21,18.30
2007,07,12,03,22,18.30
2007,07,12,03,23,18.20
2007,07,12,03,24,18.20
2007,07,12,03,25,18.10
2007,07,12,03,26,18.10
2007,07,12,03,27,17.90
2007,07,12,03,28,17.90
2007,07,12,03,29,17.90
2007,07,12,03,30,17.80
2007,07,12,03,31,17.80
2007,07,12,03,32,17.80
2007,07,12,03,33,17.70
2007,07,12,03,34,17.70
2007,07,12,03,35,17.60
2007,07,12,03,36,17.50
2007,07,12,03,37,17.50
2007,07,12,03,38,17.40
2007,07,12,03,39,17.40
2007,07,12,03,40,17.30
2007,07,12,03,41,17.30
2007,07,12,03,42,17.30
2007,07,12,03,43,17.20
2007,07,12,03,44,17.10
2007,07,12,03,45,17.10
2007,07,12,03,46,17.00
2007,07,12,03,47,16.90
2007,07,12,03,48,16.90
2007,07,12,03,49,16.80
2007,07,12,03,50,16.70
2007,07,12,03,51,16.60
2007,07,12,03,52,16.50
2007,07,12,03,53,16.40
2007,07,12,03,54,16.40
2007,07,12,03,55,16.40
2007,07,12,03,56,16.30
2007,07,12,03,57,16.20
2007,07,12,03,58,16.10
2007,07,12,03,59,16.10
2007,07,12,04,00,16.00
2007,07,12,04,01,15.90
2007,07,12,04,02,15.90
2007,07,12,04,03,15.80
2007,07,12,04,04,15.80
2007,07,12,04,05,15.80
2007,07,12,04,06,15.70
2007,07,12,04,07,15.70
2007,07,12,04,08,15.70
2007,07,12,04,09,15.60
2007,07,12,04,10,15.60
2007,07,12,04,11,15.50
2007,07,12,04,12,15.50
2007,07,12,04,13,15.50
2007,07,12,04,14,15.40
2007,07,12,04,15,15.40
2007,07,12,04,16,15.40
2007,07,12,04,17,15.30
2007,07,12,04,18,15.30
2007,07,12,04,19,15.30
2007,07,12,04,20,15.30
2007,07,12,04,21,15.20
2007,07,12,04,22,15.20
2007,07,12,04,23,15.10
2007,07,12,04,24,15.10
2007,07,12,04,25,15.10
2007,07,12,04,26,15.00
2007,07,12,04,27,15.00
2007,07,12,04,28,14.90
2007,07,12,04,29,14.90
2007,07,12,04,30,14.90
2007,07,12,04,31,14.80
2007,07,12,04,32,14.80
2007,07,12,04,33,14.80
2007,07,12,04,34,14.80
2007,07,12,04,35,14.80
2007,07,12,04,36,14.80
2007,07,12,04,37,14.80
2007,07,12,04,38,14.80
2007,07,12,04,39,14.80
2007,07,12,04,40,14.80
2007,07,12,04,41,14.80
2007,07,12,04,42,14.70
2007,07,12,04,43,14.70
2007,07,12,04,44,14.70
2007,07,12,04,45,14.70
2007,07,12,04,46,14.70
2007,07,12,04,47,14.70
2007,07,12,04,48,14.70
2007,07,12,04,49,14.70
2007,07,12,04,50,14.70
2007,07,12,04,51,14.60
2007,07,12,04,52,14.60
2007,07,12,04,53,14.60
2007,07,12,04,54,14.60
2007,07,12,04,55,14.60
2007,07,12,04,56,14.60
2007,07,12,04,57,14.60
2007,07,12,04,58,14.60
2007,07,12,04,59,14.60
2007,07,12,05,00,14.60
2007,07,12,05,01,14.60
2007,07,12,05,02,14.60
2007,07,12,05,03,14.60
2007,07,12,05,04,14.60
2007,07,12,05,05,14.60
2007,07,12,05,06,14.60
2007,07,12,05,07,14.60
2007,07,12,05,08,14.60
2007,07,12,05,09,14.60
2007,07,12,05,10,14.60
2007,07,12,05,11,14.60
2007,07,12,05,12,14.50
2007,07,12,05,13,14.50
2007,07,12,05,14,14.50
2007,07,12,05,15,14.50
2007,07,12,05,16,14.50
2007,07,12,05,17,14.50
2007,07,12,05,18,14.50
2007,07,12,05,19,14.50
2007,07,12,05,20,14.50
2007,07,12,05,24,14.40
2007,07,12,05,25,14.40
2007,07,12,05,26,14.30
2007,07,12,05,27,14.30
2007,07,12,05,28,14.30
2007,07,12,05,29,14.30
2007,07,12,05,30,14.30
2007,07,12,05,31,14.30
2007,07,12,05,32,14.30
2007,07,12,05,33,14.30
2007,07,12,05,34,14.20
2007,07,12,05,35,14.20
2007,07,12,05,36,14.20
2007,07,12,05,37,14.20
2007,07,12,05,38,14.20
2007,07,12,05,39,14.20
2007,07,12,05,40,14.20
2007,07,12,05,41,14.20
2007,07,12,05,42,14.20
2007,07,12,05,43,14.20
2007,07,12,05,44,14.20
2007,07,12,05,45,14.20
2007,07,12,05,46,14.20
2007,07,12,05,47,14.20
2007,07,12,05,48,14.20
2007,07,12,05,49,14.20
2007,07,12,05,50,14.10
2007,07,12,05,51,14.10
2007,07,12,05,52,14.10
2007,07,12,05,53,14.10
2007,07,12,05,54,14.10
2007,07,12,05,55,14.10
2007,07,12,05,56,14.10
2007,07,12,05,57,14.10
2007,07,12,05,58,14.10
2007,07,12,05,59,14.10
2007,07,12,06,00,14.10
2007,07,12,06,01,14.10
2007,07,12,06,02,14.10
2007,07,12,06,03,14.10
2007,07,12,06,04,14.10
2007,07,12,06,05,14.10
2007,07,12,06,06,14.10
2007,07,12,06,07,14.10
2007,07,12,06,08,14.10
2007,07,12,06,09,14.10
2007,07,12,06,10,14.10
2007,07,12,06,11,14.10
2007,07,12,06,12,14.10
2007,07,12,06,13,14.10
2007,07,12,06,14,14.10
2007,07,12,06,15,14.10
2007,07,12,06,16,14.10
2007,07,12,06,17,14.10
2007,07,12,06,18,14.10
2007,07,12,06,19,14.10
2007,07,12,06,20,14.10
2007,07,12,06,21,14.10
2007,07,12,06,22,14.10
2007,07,12,06,23,14.10
2007,07,12,06,24,14.10
2007,07,12,06,25,14.10
2007,07,12,06,26,14.10
2007,07,12,06,27,14.10
2007,07,12,06,28,14.10
2007,07,12,06,29,14.20
2007,07,12,06,30,14.20
2007,07,12,06,31,14.20
2007,07,12,06,32,14.20
2007,07,12,06,33,14.20
2007,07,12,06,34,14.20
2007,07,12,06,35,14.20
2007,07,12,06,36,14.20
2007,07,12,06,37,14.30
2007,07,12,06,38,14.30
2007,07,12,06,39,14.30
2007,07,12,06,40,14.40
2007,07,12,06,41,14.40
2007,07,12,06,42,14.40
2007,07,12,06,43,14.40
2007,07,12,06,44,14.40
2007,07,12,06,45,14.50
2007,07,12,06,46,14.50
2007,07,12,06,47,14.50
2007,07,12,06,48,14.50
2007,07,12,06,49,14.60
2007,07,12,06,50,14.60
2007,07,12,06,51,14.60
2007,07,12,06,52,14.60
2007,07,12,06,53,14.60
2007,07,12,06,54,14.60
2007,07,12,06,55,14.60
2007,07,12,06,56,14.60
2007,07,12,06,57,14.70
2007,07,12,06,58,14.70
2007,07,12,06,59,14.70
2007,07,12,07,00,14.70
2007,07,12,07,01,14.70
2007,07,12,07,02,14.80
2007,07,12,07,03,14.80
2007,07,12,07,04,14.80
2007,07,12,07,05,14.80
2007,07,12,07,06,14.80
2007,07,12,07,07,14.80
2007,07,12,07,08,14.80
2007,07,12,07,09,14.80
2007,07,12,07,10,14.80
2007,07,12,07,11,14.80
2007,07,12,07,12,14.80
2007,07,12,07,13,14.80
2007,07,12,07,14,14.80
2007,07,12,07,15,14.80
2007,07,12,07,16,14.80
2007,07,12,07,17,14.90
2007,07,12,07,18,14.90
2007,07,12,07,19,14.90
2007,07,12,07,20,14.90
2007,07,12,07,21,14.90
2007,07,12,07,22,15.00
2007,07,12,07,23,15.00
2007,07,12,07,24,15.00
2007,07,12,07,25,15.00
2007,07,12,07,26,15.00
2007,07,12,07,27,15.00
2007,07,12,07,28,15.10
2007,07,12,07,29,15.10
2007,07,12,07,30,15.10
2007,07,12,07,31,15.10
2007,07,12,07,32,15.10
2007,07,12,07,33,15.10
2007,07,12,07,34,15.10
2007,07,12,07,35,15.20
2007,07,12,07,36,15.20
2007,07,12,07,37,15.20
2007,07,12,07,38,15.30
2007,07,12,07,39,15.30
2007,07,12,07,40,15.30
2007,07,12,07,41,15.30
2007,07,12,07,42,15.30
2007,07,12,07,43,15.30
2007,07,12,07,44,15.30
2007,07,12,07,45,15.40
2007,07,12,07,46,15.40
2007,07,12,07,47,15.40
2007,07,12,07,48,15.50
2007,07,12,07,49,15.50
2007,07,12,07,50,15.50
2007,07,12,07,51,15.60
2007,07,12,07,52,15.60
2007,07,12,07,53,15.60
2007,07,12,07,54,15.70
2007,07,12,07,55,15.70
2007,07,12,07,56,15.80
2007,07,12,07,57,15.80
2007,07,12,07,58,15.80
2007,07,12,07,59,15.90
2007,07,12,08,00,15.90
2007,07,12,08,01,16.00
2007,07,12,08,02,16.10
2007,07,12,08,03,16.10
2007,07,12,08,04,16.20
2007,07,12,08,05,16.20
2007,07,12,08,06,16.30
2007,07,12,08,07,16.30
2007,07,12,08,08,16.40
2007,07,12,08,09,16.40
2007,07,12,08,10,16.50
2007,07,12,08,11,16.60
2007,07,12,08,12,16.60
2007,07,12,08,13,16.70
2007,07,12,08,14,16.70
2007,07,12,08,15,16.80
2007,07,12,08,16,16.80
2007,07,12,08,17,16.90
2007,07,12,08,18,17.00
2007,07,12,08,19,17.00
2007,07,12,08,20,17.10
2007,07,12,08,21,17.20
2007,07,12,08,22,17.20
2007,07,12,08,23,17.30
2007,07,12,08,24,17.30
2007,07,12,08,25,17.40
2007,07,12,08,26,17.40
2007,07,12,08,27,17.50
2007,07,12,08,28,17.50
2007,07,12,08,29,17.60
2007,07,12,08,30,17.70
2007,07,12,08,31,17.70
2007,07,12,08,32,17.80
2007,07,12,08,33,17.80
2007,07,12,08,34,17.80
2007,07,12,08,35,17.80
2007,07,12,08,36,17.80
2007,07,12,08,37,17.80
2007,07,12,08,38,17.70
2007,07,12,08,39,17.70
2007,07,12,08,40,17.70
2007,07,12,08,41,17.70
2007,07,12,08,42,17.70
2007,07,12,08,43,17.70
2007,07,12,08,44,17.70
2007,07,12,08,45,17.70
2007,07,12,08,46,17.70
2007,07,12,08,47,17.70
2007,07,12,08,48,17.70
2007,07,12,08,49,17.70
2007,07,12,08,50,17.80
2007,07,12,08,51,17.80
2007,07,12,08,52,17.80
2007,07,12,08,53,17.90
2007,07,12,08,54,17.90
2007,07,12,08,55,17.90
2007,07,12,08,56,17.90
2007,07,12,08,57,17.90
2007,07,12,08,58,17.90
2007,07,12,08,59,18.00
2007,07,12,09,00,18.10
2007,07,12,09,01,18.10
2007,07,12,09,02,18.10
2007,07,12,09,03,18.10
2007,07,12,09,04,18.20
2007,07,12,09,05,18.20
2007,07,12,09,06,18.20
2007,07,12,09,07,18.20
2007,07,12,09,08,18.20
2007,07,12,09,09,18.20
2007,07,12,09,10,18.20
2007,07,12,09,11,18.20
2007,07,12,09,12,18.30
2007,07,12,09,13,18.30
2007,07,12,09,14,18.30
2007,07,12,09,15,18.30
2007,07,12,09,16,18.30
2007,07,12,09,17,18.30
2007,07,12,09,18,18.40
2007,07,12,09,19,18.40
2007,07,12,09,20,18.40
2007,07,12,09,21,18.40
2007,07,12,09,22,18.40
2007,07,12,09,23,18.40
2007,07,12,09,24,18.40
2007,07,12,09,25,18.40
2007,07,12,09,26,18.40
2007,07,12,09,27,18.40
2007,07,12,09,28,18.40
2007,07,12,09,29,18.40
2007,07,12,09,30,18.40
2007,07,12,09,31,18.40
2007,07,12,09,32,18.40
2007,07,12,09,33,18.50
2007,07,12,09,34,18.50
2007,07,12,09,35,18.50
2007,07,12,09,36,18.50
2007,07,12,09,37,18.50
2007,07,12,09,38,18.50
2007,07,12,09,39,18.50
2007,07,12,09,40,18.60
2007,07,12,09,41,18.60
2007,07,12,09,42,18.60
2007,07,12,09,43,18.70
2007,07,12,09,44,18.70
2007,07,12,09,45,18.70
2007,07,12,09,46,18.70
2007,07,12,09,47,18.70
2007,07,12,09,48,18.70
2007,07,12,09,49,18.70
2007,07,12,09,50,18.80
2007,07,12,09,51,18.80
2007,07,12,09,52,18.80
2007,07,12,09,53,18.80
2007,07,12,09,54,18.80
2007,07,12,09,55,18.80
2007,07,12,09,56,18.80
2007,07,12,09,57,18.80
2007,07,12,09,58,18.80
2007,07,12,09,59,18.80
2007,07,12,10,00,18.90
2007,07,12,10,01,18.90
2007,07,12,10,02,19.00
2007,07,12,10,03,19.10
2007,07,12,10,04,19.10
2007,07,12,10,05,19.10
2007,07,12,10,06,19.10
2007,07,12,10,07,19.00
2007,07,12,10,08,18.90
2007,07,12,10,09,18.90
2007,07,12,10,10,18.90
2007,07,12,10,11,18.90
2007,07,12,10,12,18.90
2007,07,12,10,13,19.00
2007,07,12,10,14,19.10
2007,07,12,10,15,19.20
2007,07,12,10,16,19.30
2007,07,12,10,17,19.30
2007,07,12,10,18,19.30
2007,07,12,10,19,19.30
2007,07,12,10,20,19.30
2007,07,12,10,21,19.30
2007,07,12,10,22,19.30
2007,07,12,10,23,19.30
2007,07,12,10,24,19.30
2007,07,12,10,25,19.30
2007,07,12,10,26,19.30
2007,07,12,10,27,19.30
2007,07,12,10,28,19.30
2007,07,12,10,29,19.30
2007,07,12,10,30,19.20
2007,07,12,10,31,19.10
2007,07,12,10,32,19.10
2007,07,12,10,33,19.10
2007,07,12,10,34,19.10
2007,07,12,10,35,19.10
2007,07,12,10,36,19.10
2007,07,12,10,37,19.10
2007,07,12,10,38,19.10
2007,07,12,10,39,19.10
2007,07,12,10,40,19.10
2007,07,12,10,41,19.10
2007,07,12,10,42,19.10
2007,07,12,10,43,19.10
2007,07,12,10,44,19.10
2007,07,12,10,45,19.10
2007,07,12,10,46,19.20
2007,07,12,10,47,19.20
2007,07,12,10,48,19.30
2007,07,12,10,49,19.30
2007,07,12,10,50,19.30
2007,07,12,10,51,19.40
2007,07,12,10,52,19.40
2007,07,12,10,53,19.30
2007,07,12,10,54,19.20
2007,07,12,10,55,19.20
2007,07,12,10,56,19.20
2007,07,12,10,57,19.10
2007,07,12,10,58,19.10
2007,07,12,10,59,19.10
2007,07,12,11,00,19.10
2007,07,12,11,01,19.10
2007,07,12,11,02,19.10
2007,07,12,11,03,19.10
2007,07,12,11,04,19.10
2007,07,12,11,05,19.20
2007,07,12,11,06,19.30
2007,07,12,11,07,19.30
2007,07,12,11,08,19.30
2007,07,12,11,09,19.30
2007,07,12,11,10,19.30
2007,07,12,11,11,19.40
2007,07,12,11,12,19.40
2007,07,12,11,13,19.40
2007,07,12,11,14,19.50
2007,07,12,11,15,19.50
2007,07,12,11,16,19.50
2007,07,12,11,17,19.50
2007,07,12,11,18,19.60
2007,07,12,11,19,19.60
2007,07,12,11,20,19.70
2007,07,12,11,21,19.80
2007,07,12,11,22,19.90
2007,07,12,11,23,19.90
2007,07,12,11,24,20.00
2007,07,12,11,25,20.20
2007,07,12,11,26,20.30
2007,07,12,11,27,20.50
2007,07,12,11,28,20.50
2007,07,12,11,29,20.70
2007,07,12,11,30,20.70
2007,07,12,11,31,20.80
2007,07,12,11,32,20.70
2007,07,12,11,33,20.60
2007,07,12,11,34,20.60
2007,07,12,11,35,20.50
2007,07,12,11,36,20.50
2007,07,12,11,37,20.40
2007,07,12,11,38,20.50
2007,07,12,11,39,20.60
2007,07,12,11,40,20.70
2007,07,12,11,41,20.80
2007,07,12,11,42,21.00
2007,07,12,11,43,21.00
2007,07,12,11,44,21.00
2007,07,12,11,45,21.10
2007,07,12,11,46,21.10
2007,07,12,11,47,21.10
2007,07,12,11,48,21.10
2007,07,12,11,49,21.10
2007,07,12,11,50,21.10
2007,07,12,11,51,21.00
2007,07,12,11,52,21.00
2007,07,12,11,53,20.90
2007,07,12,11,54,20.80
2007,07,12,11,55,20.80
2007,07,12,11,56,20.70
2007,07,12,11,57,20.70
2007,07,12,11,58,20.70
2007,07,12,11,59,20.70
2007,07,12,12,00,20.70
2007,07,12,12,01,20.70
2007,07,12,12,02,20.60
2007,07,12,12,03,20.50
2007,07,12,12,04,20.40
2007,07,12,12,05,20.30
2007,07,12,12,06,20.20
2007,07,12,12,07,20.20
2007,07,12,12,08,20.20
2007,07,12,12,09,20.30
2007,07,12,12,10,20.50
2007,07,12,12,11,20.60
2007,07,12,12,12,20.60
2007,07,12,12,13,20.60
2007,07,12,12,14,20.50
2007,07,12,12,15,20.50
2007,07,12,12,16,20.50
2007,07,12,12,17,20.60
2007,07,12,12,18,20.70
2007,07,12,12,19,20.80
2007,07,12,12,20,20.90
2007,07,12,12,21,20.90
2007,07,12,12,22,20.90
2007,07,12,12,23,20.80
2007,07,12,12,24,20.80
2007,07,12,12,25,20.80
2007,07,12,12,26,20.90
2007,07,12,12,27,21.00
2007,07,12,12,28,21.00
2007,07,12,12,29,21.00
2007,07,12,12,30,21.10
2007,07,12,12,31,21.20
2007,07,12,12,32,21.30
2007,07,12,12,33,21.30
2007,07,12,12,34,21.30
2007,07,12,12,35,21.40
2007,07,12,12,36,21.30
2007,07,12,12,37,21.30
2007,07,12,12,38,21.30
2007,07,12,12,39,21.30
2007,07,12,12,40,21.30
2007,07,12,12,41,21.40
2007,07,12,12,42,21.50
2007,07,12,12,43,21.60
2007,07,12,12,44,21.60
2007,07,12,12,45,21.70
2007,07,12,12,46,21.90
2007,07,12,12,47,22.00
2007,07,12,12,48,22.00
2007,07,12,12,49,22.00
2007,07,12,12,50,21.90
2007,07,12,12,51,21.80
2007,07,12,12,52,21.80
2007,07,12,12,53,21.90
2007,07,12,12,54,21.90
2007,07,12,12,55,22.10
2007,07,12,12,56,22.20
2007,07,12,12,57,22.30
2007,07,12,12,58,22.30
2007,07,12,12,59,22.30
2007,07,12,13,00,22.30
2007,07,12,13,01,22.30
2007,07,12,13,02,22.30
2007,07,12,13,03,22.20
2007,07,12,13,04,22.00
2007,07,12,13,05,21.90
2007,07,12,13,06,21.80
2007,07,12,13,07,21.80
2007,07,12,13,08,21.60
2007,07,12,13,09,21.60
2007,07,12,13,10,21.60
2007,07,12,13,11,21.60
2007,07,12,13,12,21.40
2007,07,12,13,13,21.40
2007,07,12,13,14,21.30
2007,07,12,13,15,21.30
2007,07,12,13,16,21.30
2007,07,12,13,17,21.30
2007,07,12,13,18,21.30
2007,07,12,13,19,21.30
2007,07,12,13,20,21.30
2007,07,12,13,21,21.30
2007,07,12,13,22,21.20
2007,07,12,13,23,21.20
2007,07,12,13,24,21.20
2007,07,12,13,25,21.30
2007,07,12,13,26,21.30
2007,07,12,13,27,21.30
2007,07,12,13,28,21.30
2007,07,12,13,29,21.40
2007,07,12,13,30,21.50
2007,07,12,13,31,21.60
2007,07,12,13,32,21.60
2007,07,12,13,33,21.60
2007,07,12,13,34,21.60
2007,07,12,13,35,21.60
2007,07,12,13,36,21.60
2007,07,12,13,37,21.60
2007,07,12,13,38,21.60
2007,07,12,13,39,21.60
2007,07,12,13,40,21.60
2007,07,12,13,41,21.60
2007,07,12,13,42,21.60
2007,07,12,13,43,21.60
2007,07,12,13,44,21.60
2007,07,12,13,45,21.60
2007,07,12,13,46,21.60
2007,07,12,13,47,21.50
2007,07,12,13,48,21.40
2007,07,12,13,49,21.30
2007,07,12,13,50,21.30
2007,07,12,13,51,21.20
2007,07,12,13,52,21.10
2007,07,12,13,53,21.00
2007,07,12,13,54,20.90
2007,07,12,13,55,20.80
2007,07,12,13,56,20.80
2007,07,12,13,57,20.70
2007,07,12,13,58,20.80
2007,07,12,13,59,20.80
2007,07,12,14,00,21.00
2007,07,12,14,01,21.10
2007,07,12,14,02,21.20
2007,07,12,14,03,21.40
2007,07,12,14,04,21.60
2007,07,12,14,05,21.90
2007,07,12,14,06,22.10
2007,07,12,14,07,22.40
2007,07,12,14,08,22.50
2007,07,12,14,09,22.60
2007,07,12,14,10,22.60
2007,07,12,14,11,22.50
2007,07,12,14,12,22.30
2007,07,12,14,13,22.20
2007,07,12,14,14,22.00
2007,07,12,14,15,21.90
2007,07,12,14,16,21.80
2007,07,12,14,17,21.70
2007,07,12,14,18,21.60
2007,07,12,14,19,21.60
2007,07,12,14,20,21.60
2007,07,12,14,21,21.40
2007,07,12,14,22,21.30
2007,07,12,14,23,21.30
2007,07,12,14,24,21.30
2007,07,12,14,25,21.20
2007,07,12,14,26,21.20
2007,07,12,14,27,21.10
2007,07,12,14,28,21.10
2007,07,12,14,29,21.10
2007,07,12,14,30,21.10
2007,07,12,14,31,21.10
2007,07,12,14,32,21.10
2007,07,12,14,33,21.30
2007,07,12,14,34,21.30
2007,07,12,14,35,21.30
2007,07,12,14,36,21.40
2007,07,12,14,37,21.40
2007,07,12,14,38,21.40
2007,07,12,14,39,21.50
2007,07,12,14,40,21.40
2007,07,12,14,41,21.40
2007,07,12,14,42,21.40
2007,07,12,14,43,21.30
2007,07,12,14,44,21.30
2007,07,12,14,45,21.20
2007,07,12,14,46,21.10
2007,07,12,14,47,20.90
2007,07,12,14,48,20.80
2007,07,12,14,49,20.70
2007,07,12,14,50,20.60
2007,07,12,14,51,20.50
2007,07,12,14,52,20.50
2007,07,12,14,53,20.40
2007,07,12,14,54,20.30
2007,07,12,14,55,20.20
2007,07,12,14,56,20.10
2007,07,12,14,57,20.00
2007,07,12,14,58,19.90
2007,07,12,14,59,19.90
2007,07,12,15,00,19.80
2007,07,12,15,01,19.70
2007,07,12,15,02,19.70
2007,07,12,15,03,19.60
2007,07,12,15,04,19.60
2007,07,12,15,05,19.60
2007,07,12,15,06,19.60
2007,07,12,15,07,19.70
2007,07,12,15,08,19.70
2007,07,12,15,09,19.70
2007,07,12,15,10,19.70
2007,07,12,15,11,19.70
2007,07,12,15,12,19.80
2007,07,12,15,13,19.80
2007,07,12,15,14,19.80
2007,07,12,15,15,19.80
2007,07,12,15,16,19.80
2007,07,12,15,17,19.90
2007,07,12,15,18,19.90
2007,07,12,15,19,19.90
2007,07,12,15,20,19.90
2007,07,12,15,21,20.00
2007,07,12,15,22,20.10
2007,07,12,15,23,20.10
2007,07,12,15,24,20.10
2007,07,12,15,25,20.20
2007,07,12,15,26,20.20
2007,07,12,15,27,20.20
2007,07,12,15,28,20.20
2007,07,12,15,29,20.10
2007,07,12,15,30,19.90
2007,07,12,15,31,19.90
2007,07,12,15,32,19.80
2007,07,12,15,33,19.70
2007,07,12,15,34,19.60
2007,07,12,15,35,19.50
2007,07,12,15,36,19.40
2007,07,12,15,37,19.30
2007,07,12,15,38,19.30
2007,07,12,15,39,19.20
2007,07,12,15,40,19.20
2007,07,12,15,41,19.20
2007,07,12,15,42,19.20
2007,07,12,15,43,19.10
2007,07,12,15,44,19.10
2007,07,12,15,45,19.10
2007,07,12,15,46,19.20
2007,07,12,15,47,19.20
2007,07,12,15,48,19.20
2007,07,12,15,49,19.20
2007,07,12,15,50,19.20
2007,07,12,15,51,19.30
2007,07,12,15,52,19.30
2007,07,12,15,53,19.30
2007,07,12,15,54,19.30
2007,07,12,15,55,19.30
2007,07,12,15,56,19.30
2007,07,12,15,57,19.30
2007,07,12,15,58,19.30
2007,07,12,15,59,19.30
2007,07,12,16,00,19.30
2007,07,12,16,01,19.30
2007,07,12,16,02,19.30
2007,07,12,16,03,19.10
2007,07,12,16,04,19.10
2007,07,12,16,05,19.10
2007,07,12,16,06,19.10
2007,07,12,16,07,19.00
2007,07,12,16,08,18.90
2007,07,12,16,09,18.90
2007,07,12,16,10,18.90
2007,07,12,16,11,19.10
2007,07,12,16,12,19.10
2007,07,12,16,13,19.10
2007,07,12,16,14,19.10
2007,07,12,16,15,19.10
2007,07,12,16,16,19.20
2007,07,12,16,17,19.30
2007,07,12,16,18,19.40
2007,07,12,16,19,19.40
2007,07,12,16,20,19.50
2007,07,12,16,21,19.60
2007,07,12,16,22,19.70
2007,07,12,16,23,19.80
2007,07,12,16,24,19.90
2007,07,12,16,25,19.90
2007,07,12,16,26,20.00
2007,07,12,16,27,20.10
2007,07,12,16,28,20.10
2007,07,12,16,29,20.20
2007,07,12,16,30,20.20
2007,07,12,16,31,20.20
2007,07,12,16,32,20.20
2007,07,12,16,33,20.20
2007,07,12,16,34,20.20
2007,07,12,16,35,20.20
2007,07,12,16,36,20.10
2007,07,12,16,37,20.10
2007,07,12,16,38,20.10
2007,07,12,16,39,20.00
2007,07,12,16,40,19.90
2007,07,12,16,41,19.90
2007,07,12,16,42,19.90
2007,07,12,16,43,19.90
2007,07,12,16,44,19.90
2007,07,12,16,45,19.90
2007,07,12,16,46,19.90
2007,07,12,16,47,19.80
2007,07,12,16,48,19.80
2007,07,12,16,49,19.80
2007,07,12,16,50,19.80
2007,07,12,16,51,19.70
2007,07,12,16,52,19.70
2007,07,12,16,53,19.70
2007,07,12,16,54,19.70
2007,07,12,16,55,19.70
2007,07,12,16,56,19.70
2007,07,12,16,57,19.60
2007,07,12,16,58,19.60
2007,07,12,16,59,19.60
2007,07,12,17,00,19.50
2007,07,12,17,01,19.40
2007,07,12,17,02,19.30
2007,07,12,17,03,19.20
2007,07,12,17,04,19.10
2007,07,12,17,05,19.00
2007,07,12,17,06,18.90
2007,07,12,17,07,18.80
2007,07,12,17,08,18.70
2007,07,12,17,09,18.60
2007,07,12,17,10,18.50
2007,07,12,17,11,18.50
2007,07,12,17,12,18.40
2007,07,12,17,13,18.40
2007,07,12,17,14,18.40
2007,07,12,17,15,18.40
2007,07,12,17,16,18.50
2007,07,12,17,17,18.50
2007,07,12,17,18,18.60
2007,07,12,17,19,18.60
2007,07,12,17,20,18.60
2007,07,12,17,21,18.70
2007,07,12,17,22,18.70
2007,07,12,17,23,18.80
2007,07,12,17,24,18.90
2007,07,12,17,25,19.10
2007,07,12,17,26,19.20
2007,07,12,17,27,19.50
2007,07,12,17,28,19.70
2007,07,12,17,29,20.00
2007,07,12,17,30,20.10
2007,07,12,17,31,20.10
2007,07,12,17,32,20.50
2007,07,12,17,33,20.60
2007,07,12,17,34,20.60
2007,07,12,17,35,20.70
2007,07,12,17,36,20.70
2007,07,12,17,37,20.70
2007,07,12,17,38,20.70
2007,07,12,17,39,20.80
2007,07,12,17,40,20.80
2007,07,12,17,41,20.80
2007,07,12,17,42,20.80
2007,07,12,17,43,20.80
2007,07,12,17,44,20.80
2007,07,12,17,45,20.80
2007,07,12,17,46,20.80
2007,07,12,17,47,20.90
2007,07,12,17,48,21.00
2007,07,12,17,49,21.00
2007,07,12,17,50,21.10
2007,07,12,17,51,21.20
2007,07,12,17,52,21.20
2007,07,12,17,53,21.30
2007,07,12,17,54,21.30
2007,07,12,17,55,21.20
2007,07,12,17,56,21.20
2007,07,12,17,57,21.10
2007,07,12,17,58,21.10
2007,07,12,17,59,21.10
2007,07,12,18,00,21.10
2007,07,12,18,01,21.00
2007,07,12,18,02,21.00
2007,07,12,18,03,21.00
2007,07,12,18,04,20.90
2007,07,12,18,05,20.90
2007,07,12,18,06,20.80
2007,07,12,18,07,20.80
2007,07,12,18,08,20.70
2007,07,12,18,09,20.70
2007,07,12,18,10,20.60
2007,07,12,18,11,20.50